Location: Morgantown
(40.9734°N, 80.6323°W)
Time: 00:01:42
(UTC+00:00)

CZ-4B R/B - Pass Details

Date: 29 October 2020
Orbit: 388 x 461 km, 97.6° (Epoch: 03 December)

Event Time Altitude Azimuth Distance (km) Brightness Sun altitude
Rises 23:22:10 0° 4° (N) 2,375 4.9 -12.0°
Reaches altitude 10° 23:24:17 10° 356° (N) 1,492 4.0 -12.4°
Maximum altitude 23:27:15 38° 287° (WNW) 638 2.7 -13.0°
Drops below altitude 10° 23:30:09 10° 217° (SW) 1,447 4.6 -13.5°
Sets 23:32:09 0° 209° (SSW) 2,290 5.5 -13.9°
